Regional Weather Roundup
Issued by NWS

Home | Current Version | Previous Version | Text Only | Print | Product List | Glossary Off
Versions: 1 2 3 4 5 6 7 8 9 10 11 12 13 14 15 16 17 18 19 20 21 22 23 24 25 26 27 28 29 30 31 32 33 34 35 36 37 38 39 40 41 42 43 44 45 46 47 48 49 50

000
ASUS43 KIND 261559
RWRIN

WEATHER ROUNDUP FOR INDIANA
NATIONAL WEATHER SERVICE INDIANAPOLIS IN
1100 AM EST FRI DEC 26 2014

NOTE: "FAIR" INDICATES FEW OR NO CLOUDS BELOW 12,000 FEET WITH NO
SIGNIFICANT WEATHER AND/OR OBSTRUCTIONS TO VISIBILITY.

* - STATION DOES NOT REPORT WEATHER SUCH AS PRECIPITATION OR FOG.

+ - STATION NOT QUALITY CONTROLLED BY THE NATIONAL WEATHER SERVICE.
    USE DATA WITH CAUTION...ESPECIALLY DEWPOINT AND RELATIVE
    HUMIDITY OBSERVATIONS.

INZ001>003-010>013-019-020-261700-
NORTHWEST INDIANA

CITY           SKY/WX    TMP DP  RH WIND       PRES   REMARKS
GARY /AIRPORT/ MOSUNNY   45  32  61 SW14      30.07S
VALPARAISO     NOT AVBL

$$

LMZ046-743>745-261700-
SOUTHERN LAKE MICHIGAN

STATION/POSITION TIME  TEMP WIND        PRES
                       AIR  DIR/SP/G
                 (UTC) (F)  (DEG/KT/KT) (MB)
MICHIGAN CITY    1500   40  170/ 14/ 19   N/A

$$

INZ004-005-014>016-021>024-261700-
NORTH CENTRAL INDIANA

CITY           SKY/WX    TMP DP  RH WIND       PRES   REMARKS
ELKHART        SUNNY     41  32  70 SW10      30.10S
GOSHEN         SUNNY     42  35  76 SW14      30.11R
SOUTH BEND     SUNNY     43  34  70 SW15      30.10R

$$

INZ006>009-017-018-025>027-261700-
NORTHEAST INDIANA

CITY           SKY/WX    TMP DP  RH WIND       PRES   REMARKS
ANGOLA *+      SUNNY     41  28  60 SW6       30.12R
FORT WAYNE     PTSUNNY   42  35  76 SW14      30.15R

$$

INZ028-029-035-036-043>045-051>053-261700-
WEST CENTRAL INDIANA

CITY           SKY/WX    TMP DP  RH WIND       PRES   REMARKS
GREENCASTLE +  SUNNY     43  32  65 S10       30.17R
LAFAYETTE      SUNNY     44  36  73 S6        30.13R
TERRE HAUTE    SUNNY     43  36  76 S9        30.17R

$$

INZ030>032-037>040-046>048-054>057-064-065-261700-
CENTRAL INDIANA

CITY           SKY/WX    TMP DP  RH WIND       PRES   REMARKS
ANDERSON       SUNNY     41  36  81 S15G21    30.18R
INDIANAPOLIS   MOSUNNY   42  35  76 S17       30.17R
-EAGLE CREEK   SUNNY     43  36  76 S12G17    30.16S
KOKOMO *+      SUNNY     43  36  75 SW14      30.13S
MT COMFORT *+  SUNNY     41  34  75 S12       30.18S
SHELBYVILLE    SUNNY     41  35  79 S14       30.19S

$$

INZ033-034-041-042-049-050-058-059-261700-
EAST CENTRAL INDIANA

CITY           SKY/WX    TMP DP  RH WIND       PRES   REMARKS
MUNCIE         SUNNY     42  35  76 SW14G21   30.16S

$$

INZ060-061-067>069-081>083-085>088-261700-
SOUTHWEST INDIANA

CITY           SKY/WX    TMP DP  RH WIND       PRES   REMARKS
EVANSVILLE     SUNNY     47  37  68 S14       30.24R
HUNTINGBURG *+ SUNNY     46  37  71 S10G16    30.24R

$$

INZ062-063-066-070>080-084-089>092-261700-
SOUTH CENTRAL AND SOUTHEAST INDIANA

CITY           SKY/WX    TMP DP  RH WIND       PRES   REMARKS
BLOOMINGTON    SUNNY     45  37  73 SW10      30.19R

$$



USA.gov is the U.S. government's official web portal to all federal, state and local government web resources and services.